GFSNE_850_thetae_333.txt.gz
Theta_e
307 306 306 305 305 304 304 304 304 305 305 305 304 304 303 302 302 301 300 298 298 297 297 297 297 297 297 297 301 302 303 303 302 301 302 302 302 303
307 307 307 306 306 305 305 304 304 304 304 304 304 304 304 303 303 302 302 301 300 299 298 297 297 297 296 296 297 299 301 302 301 301 300 300 301 301
307 307 307 306 306 305 305 305 304 304 304 304 304 304 304 303 303 303 302 302 302 301 300 299 298 298 297 296 296 299 296 300 301 300 300 298 299 299
307 307 307 307 306 306 305 304 304 304 304 304 304 304 303 303 303 303 303 303 301 302 301 301 300 299 298 297 296 296 295 296 299 299 295 294 294 295
307 307 307 306 306 306 305 305 305 304 304 304 304 303 303 303 303 303 303 303 303 303 302 301 300 300 299 298 297 296 296 295 296 296 295 293 293 293
307 307 307 306 306 306 306 305 305 305 304 304 303 303 303 303 303 303 302 303 303 303 303 302 300 301 300 299 298 297 296 296 295 296 295 293 293 292
309 309 307 307 307 306 305 305 305 305 304 304 304 304 303 303 303 302 302 303 303 302 301 300 300 301 300 299 298 297 296 297 295 296 295 293 293 292
309 310 310 309 308 307 306 305 304 304 305 305 304 304 304 304 303 303 302 301 301 301 302 301 301 300 301 300 298 297 296 296 295 296 294 293 292 292
310 310 310 309 308 306 306 305 304 303 304 304 304 304 304 305 304 303 303 303 302 302 301 301 301 300 300 299 298 298 297 296 295 295 294 292 292 292
309 309 308 308 308 308 306 305 304 303 304 304 304 306 305 304 304 304 303 303 302 301 300 299 300 300 300 300 299 296 296 296 296 296 294 292 292 291
308 308 308 308 307 306 304 304 303 304 304 304 306 307 307 305 305 304 304 303 302 301 301 299 300 300 299 300 299 298 297 296 296 294 292 292 291 291
307 307 307 307 306 305 304 304 304 304 304 305 306 306 305 305 302 303 303 303 301 299 300 299 300 299 297 300 300 299 299 297 297 294 292 292 291 290
306 306 307 306 306 305 304 303 303 304 305 305 305 304 304 303 304 303 302 303 302 301 301 300 299 299 298 298 298 296 295 294 296 293 292 291 290 290
304 305 306 305 304 303 303 303 303 303 303 303 302 302 302 302 302 302 302 302 302 302 301 300 298 298 298 298 297 298 298 296 293 292 291 290 291 291
304 305 305 304 303 302 302 301 300 300 300 300 299 299 299 300 300 301 301 301 301 301 301 300 299 297 297 298 298 298 297 292 291 291 291 290 291 291
305 304 300 298 300 300 300 300 298 297 297 297 297 296 296 296 298 299 300 300 301 301 301 300 299 298 297 298 297 295 295 293 293 292 291 290 291 291
301 297 297 299 298 298 297 296 295 295 293 294 294 294 294 294 294 296 297 298 299 300 300 300 299 298 297 297 296 296 295 295 293 293 291 290 290 291
297 298 297 297 295 295 294 294 293 292 292 292 292 292 292 292 293 294 296 297 298 298 299 299 298 298 296 296 296 296 296 295 296 295 293 291 291 292
297 296 295 294 293 293 293 293 292 291 291 291 291 291 291 291 292 293 295 297 297 297 298 298 298 297 296 295 297 297 297 297 296 296 294 292 290 291
295 294 293 293 293 292 292 291 291 291 290 290 291 291 291 292 292 292 294 295 296 297 297 297 298 297 296 297 296 297 297 297 296 296 294 292 291 291
293 293 292 292 292 291 291 290 290 289 290 290 289 289 290 291 292 292 292 294 295 296 296 297 297 298 296 295 295 295 296 295 295 294 293 291 291 290
292 292 292 291 290 289 290 290 289 289 289 289 289 289 289 289 290 292 291 292 293 295 295 296 297 296 294 294 295 295 296 295 294 293 292 291 290 290
292 291 291 291 289 289 289 289 289 289 289 288 288 288 288 288 289 289 289 290 291 293 295 295 296 296 295 294 294 295 295 295 294 292 291 291 290 290

GFSNE_850_thetae_336.txt.gz
Theta_e
307 307 307 307 306 306 306 305 305 305 304 305 305 305 305 305 304 304 303 303 303 302 299 298 297 297 296 297 299 302 303 303 305 306 305 304 304 303
307 307 307 307 307 306 306 306 305 305 305 305 305 305 304 304 304 304 304 303 303 303 302 301 300 298 297 297 298 298 302 303 304 304 305 304 302 302
307 307 307 307 307 306 306 306 305 305 305 305 305 305 304 304 304 304 303 303 303 303 303 302 302 301 300 300 300 300 301 301 302 303 304 304 302 302
307 307 308 307 307 306 306 306 306 305 305 305 305 305 304 304 304 304 303 303 303 303 303 302 302 303 302 302 301 300 300 300 300 302 302 303 302 301
308 308 308 307 307 307 306 306 306 306 306 305 305 305 304 304 304 303 303 303 303 303 303 303 302 302 302 302 302 301 301 300 297 298 300 301 300 299
311 310 309 308 307 307 306 306 306 306 306 305 305 305 305 304 304 304 303 303 304 303 302 302 303 302 302 301 301 301 301 300 300 298 299 299 299 298
310 310 310 309 308 308 307 306 306 306 306 306 306 305 305 304 304 304 304 304 304 304 303 303 303 302 301 301 300 300 301 301 299 299 299 299 299 296
308 308 308 308 308 308 308 308 307 306 305 304 304 305 305 305 304 304 304 304 303 303 303 303 302 301 302 301 301 300 300 299 298 299 298 299 298 296
308 308 308 308 308 308 308 308 308 306 305 304 304 304 304 305 305 305 305 304 304 304 303 302 302 302 301 301 300 300 299 299 299 299 299 298 297 294
308 308 308 308 308 308 307 307 307 306 304 303 304 304 304 304 304 305 305 303 303 303 303 301 302 301 301 301 300 299 299 298 299 298 298 296 295 294
307 307 307 307 307 306 306 305 305 305 304 304 304 304 305 305 305 304 304 303 302 303 303 302 302 301 300 301 301 300 299 299 297 296 296 296 296 293
306 306 305 306 306 306 306 305 304 303 303 303 304 305 304 304 302 302 301 301 302 302 302 302 301 301 298 299 300 299 299 298 297 297 297 295 294 292
305 305 305 305 306 305 304 303 303 303 305 303 303 302 301 301 300 300 300 301 301 301 301 302 302 300 299 298 298 299 298 298 298 297 297 295 294 292
305 305 305 304 304 302 300 300 302 302 300 300 299 298 298 297 297 298 298 299 300 300 300 301 300 300 299 298 297 298 298 298 297 297 294 295 293 291
305 304 303 301 298 298 299 300 299 299 297 296 295 295 295 294 294 295 295 297 298 300 299 301 300 300 299 298 297 297 297 298 297 295 292 292 291 291
304 303 300 297 298 298 298 297 296 295 295 294 293 292 293 293 292 293 293 294 296 298 297 298 300 299 298 297 297 297 297 297 295 292 291 291 291 290
303 301 297 298 297 296 294 294 293 293 293 292 291 292 292 292 292 292 292 293 295 295 296 297 298 298 298 297 297 297 296 296 294 293 292 292 291 291
301 297 297 295 294 293 293 293 293 292 291 290 290 291 291 291 292 291 292 292 294 295 296 297 297 297 297 296 296 296 296 295 295 294 295 294 292 291
297 296 295 294 293 293 293 292 292 291 290 290 290 290 290 290 290 291 292 292 292 294 295 296 297 296 295 295 296 297 296 296 296 295 295 296 295 291
295 294 293 293 293 292 292 292 291 290 290 289 289 289 289 289 289 290 292 292 291 292 294 295 296 296 296 296 295 297 297 296 296 296 296 295 294 292
295 294 293 292 292 291 291 290 289 289 289 289 289 289 289 289 289 289 289 290 290 291 292 294 295 296 295 294 293 294 296 296 295 296 296 295 294 292
294 294 293 292 291 291 290 290 289 289 289 289 289 289 288 288 288 288 288 288 288 289 291 292 294 295 295 295 294 294 295 295 294 295 295 294 293 291
294 293 292 291 291 290 290 290 289 288 288 288 288 288 288 288 287 287 288 288 288 288 289 291 293 294 295 295 294 293 294 295 295 294 293 292 292 291

GFSNE_850_thetae_339.txt.gz
Theta_e
307 307 307 307 307 307 306 306 306 305 305 306 305 306 306 305 305 305 304 304 304 304 303 303 303 300 298 298 303 304 304 305 305 305 306 307 308 307
307 307 307 307 307 307 307 306 306 306 306 306 306 306 306 305 305 305 304 304 304 304 303 303 303 303 303 301 303 303 303 304 304 304 305 306 307 306
308 307 307 307 307 307 307 306 306 306 306 306 306 306 306 305 305 305 304 304 304 304 303 303 303 303 303 303 303 303 303 303 303 303 304 304 303 306
311 310 310 309 309 308 307 307 306 306 306 306 306 306 306 305 305 305 304 304 303 303 303 303 303 303 302 303 303 303 303 303 303 301 303 304 304 304
311 311 310 309 309 308 307 307 306 306 306 306 306 306 306 305 305 305 304 304 304 304 304 304 303 302 303 303 303 303 302 302 302 301 301 301 302 303
310 309 309 308 308 308 307 307 307 307 306 306 306 306 305 305 305 305 304 304 304 304 304 304 304 304 303 303 302 302 302 301 302 301 301 301 300 300
307 307 307 308 308 308 308 308 308 307 307 306 306 305 305 304 304 304 304 305 304 305 305 304 304 303 303 302 302 301 301 301 301 301 301 301 300 300
307 307 307 308 308 308 308 308 308 308 308 307 306 305 304 304 304 304 305 305 305 305 305 304 301 302 302 302 301 301 301 300 300 300 301 301 300 300
306 307 307 307 307 307 307 307 307 307 307 307 306 304 304 304 304 304 304 305 305 304 303 302 301 302 303 301 301 300 300 300 300 300 300 300 300 299
306 306 306 306 306 306 306 306 306 305 304 304 304 304 304 304 304 305 305 305 303 302 303 301 301 300 302 301 301 300 300 300 300 299 299 299 299 300
306 306 306 306 306 306 306 306 305 305 304 303 303 303 304 305 304 304 303 301 301 301 301 301 301 301 300 300 301 300 299 300 299 299 298 298 299 298
305 305 305 305 305 305 305 305 304 303 303 303 303 302 302 301 300 300 300 300 300 300 300 300 299 301 300 300 300 300 299 299 299 299 298 296 297 297
305 305 305 305 305 304 303 300 299 301 302 300 297 297 296 297 296 297 297 297 297 298 298 299 300 300 300 300 300 299 298 299 299 298 298 297 297 297
304 305 305 304 303 300 298 299 299 299 298 297 296 295 294 293 294 293 292 293 294 295 296 298 300 300 299 299 298 299 298 298 298 298 297 297 297 296
304 304 304 302 299 298 298 299 298 297 295 294 293 293 292 292 291 292 292 292 292 293 295 297 298 297 299 298 298 298 298 297 297 297 297 296 295 296
304 304 302 300 297 298 297 295 294 293 293 293 292 292 292 291 292 291 291 291 292 293 294 295 296 296 297 298 297 297 297 297 297 297 296 293 292 292
304 303 300 297 296 294 293 293 293 293 293 292 291 291 291 290 290 291 291 291 292 292 293 295 296 296 297 297 296 296 296 297 296 296 294 292 291 291
303 300 296 295 294 293 293 293 292 292 291 291 290 290 290 289 289 289 290 291 292 291 291 294 294 295 296 296 297 296 296 296 296 296 294 293 292 292
299 296 295 294 293 293 292 292 292 291 290 290 290 289 289 289 289 289 289 289 290 291 291 291 293 294 294 295 295 296 295 296 296 296 296 294 294 293
295 294 294 294 293 292 292 291 291 291 290 290 289 289 289 288 288 288 288 288 290 289 289 290 291 293 293 293 293 295 295 295 295 295 296 295 295 294
294 294 294 294 293 292 291 291 291 290 290 289 289 289 288 288 288 288 288 287 287 287 288 289 290 292 293 294 294 295 295 295 294 295 295 295 295 294
294 294 293 293 292 291 291 291 290 290 289 289 288 288 288 288 288 288 287 287 287 287 287 288 289 291 293 293 294 295 294 294 294 294 294 295 295 294
293 293 293 292 292 291 290 290 290 289 287 288 288 288 288 287 287 287 287 287 287 287 287 287 288 290 292 292 293 294 293 293 294 294 294 294 293 293

GFSNE_850_thetae_342.txt.gz
Theta_e
308 308 307 307 307 307 306 306 306 305 306 306 306 307 306 306 306 305 305 305 304 304 304 304 304 303 303 303 304 305 305 306 307 307 307 307 307 308
309 308 308 308 307 307 307 307 307 306 306 306 306 306 306 306 306 305 305 305 304 304 304 304 303 303 303 303 303 303 305 306 305 305 305 305 307 307
311 311 311 310 310 310 308 308 307 306 306 307 307 306 307 306 306 306 305 305 304 304 304 303 303 303 303 303 303 303 303 304 305 305 303 304 305 305
312 312 311 310 309 309 308 308 307 307 306 306 307 307 307 307 306 305 305 305 304 304 304 304 304 304 303 303 303 303 304 304 304 303 304 304 304 303
310 309 308 308 307 307 307 307 307 307 307 307 307 307 307 306 305 304 304 304 304 305 305 305 305 305 305 305 304 304 303 303 303 304 303 304 305 303
308 307 307 307 307 307 307 307 307 308 308 307 307 307 307 306 305 303 304 304 305 305 305 305 305 304 303 303 302 302 302 302 303 303 303 303 303 303
307 306 306 306 307 307 307 307 307 307 308 308 308 307 307 305 304 303 304 304 304 304 303 303 303 302 302 301 302 302 302 301 301 301 302 302 302 302
306 306 306 306 306 306 306 307 307 307 307 307 307 306 305 305 304 304 303 304 304 304 303 303 302 301 302 301 301 302 301 300 300 301 301 301 301 301
306 305 305 305 306 306 306 306 306 306 305 304 304 304 304 304 304 304 304 304 304 303 303 303 300 301 300 301 300 300 300 300 300 300 301 300 300 301
305 305 305 305 305 305 305 306 306 305 305 305 304 303 303 304 304 304 303 302 302 301 301 301 299 299 299 299 300 299 299 300 299 300 300 300 300 300
304 305 305 305 305 305 305 305 305 304 303 301 302 302 302 302 302 301 300 300 299 298 299 299 298 299 298 298 298 298 299 300 299 299 299 300 299 299
304 305 305 305 305 305 305 304 302 300 298 299 298 298 296 296 295 296 297 297 296 295 295 296 296 297 299 299 298 298 299 299 299 299 299 299 299 299
304 304 304 304 305 304 303 300 298 298 299 298 296 295 294 294 293 293 293 293 293 292 292 293 293 294 296 298 299 298 299 298 298 298 298 299 298 298
304 304 304 304 304 303 301 298 298 298 297 295 293 293 293 293 293 293 293 292 292 291 292 292 293 295 295 297 296 298 298 298 298 297 298 298 298 297
304 304 304 304 303 300 298 297 296 295 293 293 293 293 292 292 292 292 292 292 292 292 291 292 294 295 296 296 296 296 296 298 297 297 297 297 297 297
303 304 304 303 301 297 296 294 293 293 293 292 292 292 292 292 292 291 290 290 290 291 292 291 293 294 295 295 295 296 297 297 297 297 297 297 296 294
303 304 303 301 297 295 294 293 293 292 292 292 291 291 291 291 291 290 290 289 288 289 290 292 291 292 294 295 295 296 296 297 296 296 296 295 294 292
304 303 301 296 295 294 293 293 292 292 291 291 291 291 291 291 290 290 289 289 289 289 290 289 290 291 293 293 294 294 295 295 296 296 296 295 295 292
302 300 296 294 294 294 293 292 292 291 291 291 290 290 290 290 289 289 288 288 288 288 288 288 288 290 290 291 293 294 294 293 294 295 295 295 295 293
299 296 294 294 294 293 292 292 291 291 290 290 290 290 289 289 289 288 288 287 287 287 287 288 288 288 288 290 292 293 294 294 294 294 294 295 296 295
296 294 294 294 293 293 292 291 291 290 290 290 290 289 288 288 288 288 288 287 287 287 287 287 288 287 288 290 292 293 294 294 294 294 294 294 295 295
295 294 293 293 293 292 292 291 291 290 290 290 288 287 288 288 287 287 287 287 286 286 286 287 288 288 288 289 290 291 292 293 294 294 294 293 294 294
296 294 293 292 292 292 291 291 290 290 289 288 288 287 288 287 287 287 286 286 287 286 286 286 286 287 287 288 289 291 291 292 292 293 293 293 293 293

GFSNE_850_thetae_348.txt.gz
Theta_e
312 312 311 310 310 309 308 307 307 307 307 307 306 306 307 307 307 307 307 307 307 306 306 305 305 304 304 304 305 306 306 307 307 307 308 310 310 309
313 312 312 311 311 310 309 308 308 307 306 306 306 306 307 307 307 307 307 306 305 304 304 305 304 304 304 303 303 303 304 305 306 306 307 308 308 308
312 311 311 310 310 309 308 307 307 306 306 306 306 306 306 307 307 307 306 305 305 304 304 304 304 304 305 304 305 304 304 304 305 306 306 305 305 306
311 311 310 309 308 307 306 306 306 306 306 306 305 306 306 306 306 306 305 305 305 304 304 304 305 305 304 304 304 304 304 304 303 302 302 303 304 304
311 310 309 308 307 306 306 305 305 306 306 306 306 306 305 305 305 305 305 305 304 304 304 304 304 303 303 302 302 302 302 301 302 301 301 302 302 303
311 309 308 307 306 306 305 305 305 305 305 305 305 305 305 305 305 304 304 304 303 303 300 301 303 302 301 300 300 301 301 301 300 301 301 301 301 301
311 309 308 307 306 305 305 305 305 305 305 305 305 305 305 305 304 302 302 299 297 297 298 297 296 295 295 296 295 298 298 299 300 300 300 299 299 299
311 309 307 306 306 305 304 304 304 305 305 305 305 305 304 302 300 298 297 297 299 297 296 295 295 294 294 294 295 295 297 298 298 299 300 298 299 299
311 308 307 306 305 304 304 304 304 304 305 305 304 303 300 299 298 298 297 295 295 294 294 294 294 294 294 294 294 294 294 296 297 298 298 297 298 298
311 308 307 306 305 304 304 304 304 304 304 303 301 299 298 299 297 296 295 294 293 293 293 294 294 293 294 294 295 295 296 297 298 298 298 298 298 298
311 308 306 305 304 304 304 303 304 304 303 302 299 298 297 296 294 293 293 293 293 294 293 293 293 294 293 293 294 295 294 296 296 296 298 297 298 298
310 308 306 305 304 304 303 303 303 303 302 300 298 296 295 294 293 293 292 292 292 293 292 291 292 291 291 292 291 293 294 295 295 296 296 296 297 297
309 307 305 304 304 304 303 303 303 303 301 298 296 294 294 293 293 292 292 292 292 292 292 290 291 291 290 290 291 291 295 294 295 294 295 296 297 298
309 306 304 304 304 303 303 303 303 302 298 296 294 293 293 293 292 292 291 291 291 291 291 290 289 289 289 290 290 291 292 292 293 294 294 296 296 297
307 305 304 303 303 303 303 303 302 299 296 294 293 293 293 292 291 291 291 291 291 291 292 291 290 289 289 289 289 291 292 293 294 294 295 295 295 295
306 305 303 303 303 303 303 302 300 296 295 294 293 292 292 291 291 291 291 291 291 291 291 290 289 289 288 289 289 291 292 293 292 293 294 295 294 295
305 304 303 303 303 303 302 300 296 295 294 293 292 292 291 291 291 290 290 290 290 289 289 290 290 290 289 288 289 290 291 292 292 292 293 293 294 295
305 303 303 303 303 302 301 297 295 294 294 293 292 291 291 291 290 290 290 290 290 289 288 288 286 286 288 290 289 289 290 291 291 292 292 293 293 294
304 303 303 302 302 302 298 295 294 294 293 292 292 291 291 290 289 289 289 287 287 287 287 287 286 286 286 286 287 288 288 290 291 291 291 292 292 293
303 303 303 303 302 299 296 295 294 293 293 292 291 291 290 290 289 288 287 286 286 287 287 286 286 286 286 286 286 288 288 289 290 290 290 292 292 293
303 302 303 302 300 297 295 294 293 293 293 292 291 291 290 289 288 286 287 287 287 286 286 286 286 287 287 286 286 286 289 288 289 290 291 291 291 292
302 303 302 300 298 296 295 294 293 293 292 292 291 291 290 289 288 286 286 286 286 286 286 286 286 285 286 286 286 286 287 288 289 289 290 291 291 292
303 302 301 298 297 296 295 295 294 295 294 293 292 291 290 289 288 286 286 286 286 285 285 286 286 286 286 286 286 286 286 288 288 289 290 291 292 291